CRC

Crooked River Challenge - Loft Fly

Station: Inventory - T Race

Distance: 0.1 Miles    

Release: 31-Jul-2020 06:15

Weather Release:    Arrival:

Wind at Release:     Wind at Arrival:

Temp at Release: °    Temp at Arrival: °

Lofts: 191

Birds: 953

Clocked: 955

Good Luck to Everyone!
Drops Pos Breeder Pigeon Name Color Sex Ent Arrival Speed To Win Elg PdOpB
1 Silicon Valley Syndicate - CA 20065-AU20-SVS BB C 1 08:51:06.01 1.127 00:00:00 Yes
2 Andy Owen - GA 0005-AU20-OWEN BCWF C 1 08:51:24.37 1.125 00:00:17 Yes
3 Horst Thiel - CA 4646-AU20-SRP BBSP H 1 08:51:39.30 1.123 00:00:33 Yes
3 Balikbayan Express - WA 66505-AU20-ARPU BB H 1 08:51:39.78 1.123 00:00:33 Yes
3 Orlando Golden Classic - FL 0325-AU20-ROBY Dopa 504 x 40 BC H 1 08:51:43.30 1.123 00:00:33 Yes
3 ***bird Love To Fly*** - MN 1364178-BE20-BELG 31895x90904 sweet girl BB H 1 08:51:44.74 1.123 00:00:33 Yes
3 Emerson/Donnelly - SC 0326-AU20-MERL BB C 1 08:51:46.38 1.123 00:00:33 Yes
8 Lin Family Loft - GA 8980-AU20-LIN 林 Warrior X WOLFGANG BBWF H 1 08:51:48.08 1.122 00:00:42 Yes
8 Nanez Family Loft - WI 0053-AU20-NANZ BB H 1 08:51:48.17 1.122 00:00:42 Yes
8 Sunshine Loft 2 - SC 0501-AU20-GRPC Pak 59-Pak 70 BC C 1 08:51:49.19 1.122 00:00:42 Yes
8 Greek Connection - SC 0108-AU20-GRK BEAST GIRL BB H 1 08:51:51.04 1.122 00:00:42 Yes
8 Horst Thiel - CA 4633-AU20-SRP BBWF H 2 08:51:51.88 1.122 00:00:42 Yes
8 Genesis Syndicate Loft - AZ 0522-AU20-GEN BBSP H 1 08:51:52.91 1.122 00:00:42 Yes
8 Amer Loft - GA 0007-IF20-AFL 189 AFL x 9 AFL BB H 1 08:51:53.91 1.122 00:00:42 Yes
15 Flying Glory Loft - WA 28111-AU20-ARPU BB C 1 08:51:57.03 1.121 00:00:50 Yes
15 Kolvenbag & Son - PA 1419-IF20-KOLV BC C 1 08:51:57.06 1.121 00:00:50 Yes
15 Elton Dinga - TX 11012-AU20-AA Kruger 1905 x Purdy 12005 DC C 1 08:51:57.08 1.121 00:00:50 Yes
15 KT Loft - IN 0456-AU20-KT CHCK H 1 08:51:57.24 1.121 00:00:50 Yes
15 Poorhouse Road Loft - VA 22501-AU20-ARPU BB C 1 08:51:57.95 1.121 00:00:50 Yes
15 Keyways - ID 0018-AU20-KEYS 1306X862 Featherbeard BB C 1 08:51:58.49 1.121 00:00:50 Yes
15 Genesis Syndicate Loft - AZ 0563-AU20-GEN BB C 3 08:51:59.52 1.121 00:00:50 Yes
15 Dave Dudley/Ron Moden - CO 20404-AU20-PUEB BC H 1 08:51:59.54 1.121 00:00:50 Yes
15 Cherokee Loft - MI 0637-AU20-CHER Rocket X Wonder-Polish BBWF H 1 08:52:00.94 1.121 00:00:50 Yes
15 Pleasant Task Farm - PA 0030-AU20-PTF Mr Blue Sky X 1121 BCWF C 1 08:52:00.96 1.121 00:00:50 Yes
15 Va. Lin Loft - GA 5615-AU20-ARPU 22X 达 862🏀🏀 BB H 1 08:52:01.82 1.121 00:00:50 Yes
15 Zheng Family Loft - NY 0991-AU20-ZFL Lamborghini 991 BBWF H 1 08:52:01.90 1.121 00:00:50 Yes
15 A P C Loft - TX 20004-AU20-APC BB H 1 08:52:02.45 1.121 00:00:50 Yes
15 Emerson/Donnelly - SC 0323-AU20-MERL BBSP H 2 08:52:03.99 1.121 00:00:50 Yes
15 Dfm#1 - MO 1441-IF20-BB BC C 1 08:52:04.02 1.121 00:00:50 Yes
15 S Procopoi Loft - GA 41861-AU20-ARPU Georgiana BB H 1 08:52:04.04 1.121 00:00:50 Yes
15 Lising Syndicate - CA 65411-AU20-ARPU BC C 1 08:52:04.07 1.121 00:00:50 Yes
15 Genesis Syndicate Loft - AZ 0502-AU20-GEN BBSP C 2 08:52:04.33 1.121 00:00:50 Yes
33 Dj Loft Of Utah - UT 0016-AU20-HASH BB H 1 08:52:05.35 1.120 00:00:59 Yes
33 Eastern Pearl Loft - VA 0718-AU20-EPL 🈚️量718 BB C 2 08:52:05.37 1.120 00:00:59 Yes
33 Aztec Loft - DE 0147-AU20-AZTC BCSP C 1 08:52:05.40 1.120 00:00:59 Yes
33 B.B.& W. - CA 20028-AU20-ARPU 03-04 /1 BB C 1 08:52:05.42 1.120 00:00:59 Yes
33 Highland Loft - NY 2007-AU20-DZ 952 X. 1627 BB C 2 08:52:05.83 1.120 00:00:59 Yes
33 Highland Loft - NY 2126-AU20-DZ 3262/17177 BB H 1 08:52:06.29 1.120 00:00:59 Yes
33 Sam Haslem - UT 0113-AU20-SAM DCWF C 1 08:52:07.30 1.120 00:00:59 Yes
33 A P C Loft - TX 20144-AU20-APC BB H 2 08:52:07.33 1.120 00:00:59 Yes
33 B.B.& W. - CA 20025-AU20-ARPU 01-04 /1 BB H 2 08:52:07.90 1.120 00:00:59 Yes
33 The X-Loft - IN 0096-AU20-XLFT 759-1136 BBSP H 1 08:52:08.92 1.120 00:00:59 Yes
33 Tucson Triple Challenge - AZ 1194-AU20-JEDD BB H 1 08:52:08.93 1.120 00:00:59 Yes
33 Victoria Falls World Challenge/Tbw - ZW 7650-ZA20-ZA BBWF H 1 08:52:08.95 1.120 00:00:59 Yes
33 Nanez Family Loft - WI 0004-AU20-NANZ BB C 2 08:52:08.97 1.120 00:00:59 Yes
33 Sooner Challenge - OK 40170-AU20-ARPU 8542 X 8521 BB H 1 08:52:09.00 1.120 00:00:59 Yes
33 Lefkos Pyrgos - MA 0003-AU20-LEFK BB H 1 08:52:09.01 1.120 00:00:59 Yes
33 R & D Racing 2 - ON 4455-AU20-AA BC C 1 08:52:09.03 1.120 00:00:59 Yes
33 Amer Loft - GA 0014-IF20-AFL 697 GFL x 849 GFL BBWF C 2 08:52:09.49 1.120 00:00:59 Yes
33 Zheng Family Loft - NY 0996-AU20-ZFL Bentley 996 BC H 2 08:52:10.16 1.120 00:00:59 Yes
33 Michael Kelly - CA 4105-AU20-ARC Bravo Jr BB C 1 08:52:11.17 1.120 00:00:59 Yes
33 Rachel Olivieri - CA 20538-AU20-LAKE 100 x 41 BB H 1 08:52:11.21 1.120 00:00:59 Yes
33 Eastern Pearl Loft - VA 0777-AU20-EPL 🈚️量777 BB H 1 08:52:11.24 1.120 00:00:59 Yes
33 Callahan Loft - MO 0924-AU20-AA RDSP C 1 08:52:11.67 1.120 00:00:59 Yes
33 Western Loft - CA 0890-AU20-SFR BBSP H 1 08:52:12.69 1.120 00:00:59 Yes
33 👀carlito El Animal $ Dammay Loft - FL 0036-AU20-ANIM Suave H 242 x 927 BBWF H 1 08:52:12.72 1.120 00:00:59 Yes
57 Tim Byers - OH 1500-AU20-BUCK BC C 1 08:52:13.27 1.119 00:01:07 Yes
57 Chen & Liu Family - CT 0530-IF20-TORR BC H 2 08:52:13.36 1.119 00:01:07 Yes
57 Lising Syndicate - CA 65412-AU20-ARPU BB H 2 08:52:13.92 1.119 00:01:07 Yes
57 Adams Loft - PA 0099-IF20-FSJ BC C 1 08:52:13.99 1.119 00:01:07 Yes
57 Zhengloft - FL 0051-IF20-ZHEN BCWF H 1 08:52:14.95 1.119 00:01:07 Yes
57 Alfredson Brothers - MI 40375-AU20-ARPU WT H 1 08:52:14.97 1.119 00:01:07 Yes
57 A-Lo Loft/Nemelka - UT 0050-AU20-ALOL ☯️3994☯️ BC H 1 08:52:15.09 1.119 00:01:07 Yes
57 D B J Loft - FL 1929-AU20-DBJ BC H 1 08:52:16.13 1.119 00:01:07 Yes
57 Horst Thiel - CA 4637-AU20-SRP BBPD C 4 08:52:16.35 1.119 00:01:07 Yes
57 Great Wall - MS 20002-AU20-CHAN BCWF C 1 08:52:16.64 1.119 00:01:07 Yes
57 Han Lu Loft - TX 0227-AU20-LUHA BB H 1 08:52:17.67 1.119 00:01:07 Yes
57 Horst Thiel - CA 4616-AU20-SRP BBSP H 3 08:52:17.69 1.119 00:01:07 Yes
57 Chai Suen Siu - NY 0294-IF20-SLI BC H 1 08:52:17.71 1.119 00:01:07 Yes
57 Sweeney's Flying Fortress - WI 3325-AU20-MWC BBPD H 1 08:52:17.74 1.119 00:01:07 Yes
57 Iditarod Loft - MT 7504-AU20-AA BBSP H 1 08:52:17.76 1.119 00:01:07 Yes
57 Chumash - CA 7276-AU20-JEDD BC H 1 08:52:18.78 1.119 00:01:07 Yes
57 Jimmy Zheng Loft - MS 0110-AU20-JZ BB H 1 08:52:18.81 1.119 00:01:07 Yes
57 Chen & Liu Family - CT 0059-IF20-LIU BC C 1 08:52:18.83 1.119 00:01:07 Yes
57 Family Loft - IN 0006-AU20-FAM BCWF C 1 08:52:18.86 1.119 00:01:07 Yes
57 Columba Loft - GA 0251-AU20-LYNC BB H 2 08:52:18.88 1.119 00:01:07 Yes
57 Thunder Birds/Rodriguez Breeding Loft - TX 5450-AU20-JEDD AIC-DARK HORSE BB H 1 08:52:18.89 1.119 00:01:07 Yes
57 Mesopotamia Loft - MN 1714-AU20-VITA BB H 1 08:52:19.27 1.119 00:01:07 Yes
57 Columba Loft - GA 0156-AU20-LYNC BB C 1 08:52:20.29 1.119 00:01:07 Yes
57 Joe Atkinson - OR 14377-AU20-JEDD BVR Carl BGZ C 1 08:52:20.33 1.119 00:01:07 Yes
81 Ramirez Loft - TX 0075-MX20-PALO BC H 1 08:52:22.35 1.118 00:01:15 Yes
81 Dj Loft Of Utah - UT 0002-AU20-HASH BB H 2 08:52:22.38 1.118 00:01:15 Yes
81 A P C Loft - TX 20138-AU20-APC BB C 3 08:52:22.40 1.118 00:01:15 Yes
81 ***bird Love To Fly*** - MN 1356940-BE20-BELG Hi desert 🌵 girl BCSP H 3 08:52:23.42 1.118 00:01:15 Yes
81 Q-Ba Family Loft - TX 20087-AU20-SAIN “The One To Remember” BC H 1 08:52:23.45 1.118 00:01:15 Yes
81 Baldwin & Tillson - NC 0003-AU20-TENT KW-585 BC C 1 08:52:23.50 1.118 00:01:15 Yes
81 Lin Family Loft - GA 8979-AU20-LIN 林 Warrior X WOLFGANG BC H 2 08:52:23.52 1.118 00:01:15 Yes
81 Kolvenbag & Son - PA 1407-IF20-KOLV BB H 2 08:52:23.55 1.118 00:01:15 Yes
81 Poorhouse Road Loft - VA 22508-AU20-ARPU BB H 2 08:52:23.65 1.118 00:01:15 Yes
81 Aztec Loft - DE 0144-AU20-AZTC BB H 2 08:52:23.74 1.118 00:01:15 Yes
81 Yendez Loft - TX 0572-AU20-YEND YENDEZ 572 BB H 1 08:52:24.76 1.118 00:01:15 Yes
81 Adam Hajduga - IL 0013-AU20-HAJD BC C 1 08:52:24.79 1.118 00:01:15 Yes
81 A & B Of Boring Or - OR 0234-AU20-OTC BB H 1 08:52:24.82 1.118 00:01:15 Yes
81 98 M J Loft - PA 0922-AU20-ZFL RD C 1 08:52:25.43 1.118 00:01:15 Yes
81 Sierra Ranch - CA 0275-AU20-SIER River Wind BBWF C 1 08:52:25.52 1.118 00:01:15 Lost
81 Cuevas Classic - TX 8218-AU20-DALL BB H 1 08:52:26.54 1.118 00:01:15 Yes
81 Han Lu Loft - TX 0211-AU20-LUHA BBWF H 2 08:52:26.55 1.118 00:01:15 Yes
81 Swampdog DLG - MS 0098-IF20-SDOG 150x151 BBSP C 1 08:52:26.58 1.118 00:01:15 Yes
81 Tepa Sindicato - CA 0280-AU20-SG BC H 1 08:52:26.59 1.118 00:01:15 Yes
81 ***bird Love To Fly*** - MN 0050-AU20-BDLV 2227x6717 Big girl 👧 BB H 2 08:52:26.62 1.118 00:01:15 Yes

There are 953 bird records

Note: These Race Results are unofficial and subject to change until verified by the Race Committee and declared final.